Location: Unspecified
(48.7670°N, 0.0000°E)
Time: 16:31:16
(UTC+00:00)

Altair - Pass Details

Date: 27 June 2019
Orbit: 1501 x 1683 km, 47.2° (Epoch: 21 July)

Event Time Altitude Azimuth Distance (km) Brightness Sun altitude
Rises 18:23:42 0° 226° (SW) 4,662 10.4 14.1°
Reaches altitude 10° 18:26:47 10° 222° (SW) 3,700 9.9 13.6°
Maximum altitude 18:35:45 53° 149° (SSE) 1,873 7.9 12.2°
Drops below altitude 10° 18:45:05 10° 77° (ENE) 3,847 9.2 10.8°
Sets 18:48:20 0° 73° (ENE) 4,859 9.7 10.3°
